User: anonymous   Login
Location: Narvik
(68.4360°N, 17.4370°E)
Time: 10:15:07
(UTC+02:00)
Language:

AO-92 - Orbit

View from above orbital plane
View from above orbital plane
View from above satellite
View from above satellite

Ground track
Ground track

The orbit data is extracted from the following two-line orbital elements,

1 43137U 18004AC  19295.14082986  .00000919  00000-0  41307-4 0  9993
2 43137  97.4754   2.5909 0009607 166.7072 193.4420 15.23654153 98591
Epoch (UTC): 22 October 2019 03:22:47
Eccentricity: 0.0009607
inclination: 97.4754°
perigee height: 488 km
apogee height: 501 km
right ascension of ascending node: 2.5909°
argument of perigee: 166.7072°
revolutions per day: 15.23654153
mean anomaly at epoch: 193.4420°
orbit number at epoch: 9859

The dashed part of the orbit path shows where the satellite is in the earth's shadow,  

DLR